2024-125C

Last updated on Sun Aug 04 2024 00:02:04 GMT+0000 (Coordinated Universal Time)

1 60205U 24125C 24216.54276588 .00017092 00000+0 75807-3 0 9995 2 60205 97.3192 68.5847 0023471 145.9089 214.3660 15.21403994 4618
UTC large
Height (km)
Speed (km/s)
/
Latitude / Longitude
Inclination (degrees)
Orbital Period (minutes)
Azimuth
Elevation
Range (km)
Doppler Factor

Next 0 passes for location: London (51.5072 / 0.1276)

Sorry there are no passes over London.